Windsor, Ontario

4:02 PM EDT on April 21, 2018 (GMT -0400)
Windsor

Weather History for CYQG - November, 2013

Change the Weather History Date:

Wednesday, November 20, 2013

  Actual Average Record
Temperature  
Mean Temperature 36 °F -  
Max Temperature 45 °F 39 °F 59 °F (2007)
Min Temperature 28 °F 26 °F 19 °F (2014)
Degree Days  
Heating Degree Days 28    
Moisture  
Dew Point 26 °F    
Average Humidity 66    
Maximum Humidity 81    
Minimum Humidity 39    
Precipitation  
Precipitation 0.00 in 0.10 in - ()
Sea Level Pressure  
Sea Level Pressure 30.39 in    
Wind  
Wind Speed 6 mph ()    
Max Wind Speed 17 mph    
Max Gust Speed -    
Visibility 15.0 miles    
Events      
Averages and records for this station are not official NWS values.
T = Trace of Precipitation, MM = Missing Value Source: Averaged Metar Reports

Daily Weather History Graph

Daily Weather History Graph

Search for Another Location

Airport or City:

Astronomy

Nov. 20, 2013 Rise Set
Actual Time 7:28 AM EST 5:05 PM EST
Civil Twilight 6:58 AM EST 5:36 PM EST
Nautical Twilight 6:24 AM EST 6:10 PM EST
Astronomical Twilight 5:50 AM EST 6:44 PM EST
Moon 7:47 PM EST (11/20) 9:53 AM EST (11/20)
Length of Visible Light 10h 38m
Length of Day
9h 37m
Waning Gibbous, 91% of the Moon is Illuminated
Nov 20
Waning Gibbous
Nov 25
Last Quarter
Dec 2
New
Dec 9
First Quarter
Dec 17
Full

Hourly Weather History & Observations

Time (EST) Temp. Windchill Dew Point Humidity Pressure Visibility Wind Dir Wind Speed Gust Speed Precip Events Conditions
12:00 AM 30.2 °F 23.4 °F 23.0 °F 75% 30.44 in 15.0 mi East 6.9 mph - N/A   Partly Cloudy
1:00 AM 29 °F - 23 °F 68% 30.44 in 15 mi East 5.8 mph - -   Clear
1:00 AM 28.4 °F 22.2 °F 23.0 °F 80% 30.44 in 15.0 mi East 5.8 mph - N/A   Partly Cloudy
2:00 AM 30.2 °F 24.3 °F 23.0 °F 75% 30.44 in 15.0 mi East 5.8 mph - N/A   Partly Cloudy
3:00 AM 28.4 °F 22.2 °F 23.0 °F 80% 30.45 in 15.0 mi East 5.8 mph - N/A   Partly Cloudy
4:00 AM 28.4 °F 23.3 °F 23.0 °F 80% 30.45 in 15.0 mi East 4.6 mph - N/A   Partly Cloudy
5:00 AM 30.2 °F 25.4 °F 24.8 °F 80% 30.45 in 15.0 mi East 4.6 mph - N/A   Partly Cloudy
6:00 AM 30.2 °F - 24.8 °F 80% 30.45 in 15.0 mi East 2.3 mph - N/A   Partly Cloudy
7:00 AM 30 °F - 25 °F 76% 30.46 in 15 mi Calm Calm - -   Mostly Cloudy
7:00 AM 30.2 °F - 24.8 °F 80% 30.46 in 15.0 mi Calm Calm - N/A   Mostly Cloudy
8:00 AM 32.0 °F 27.5 °F 26.6 °F 80% 30.46 in 15.0 mi ESE 4.6 mph - N/A   Mostly Cloudy
9:00 AM 33.8 °F 29.6 °F 28.4 °F 81% 30.48 in 15.0 mi East 4.6 mph - N/A   Mostly Cloudy
10:00 AM 39.2 °F 34.2 °F 30.2 °F 70% 30.46 in 15.0 mi ESE 6.9 mph - N/A   Mostly Cloudy
11:00 AM 39.2 °F 32.0 °F 32.0 °F 75% 30.45 in 15.0 mi East 11.5 mph - N/A   Overcast
12:00 PM 42.8 °F 35.4 °F 30.2 °F 61% 30.41 in 15.0 mi SE 15.0 mph - N/A   Overcast
1:00 PM 44 °F - 27 °F 39% 30.38 in 15 mi ESE 13.8 mph - -   Clear
1:00 PM 44.6 °F 37.8 °F 26.6 °F 49% 30.38 in 15.0 mi ESE 15.0 mph - N/A   Mostly Cloudy
2:00 PM 44.6 °F 37.2 °F 24.8 °F 46% 30.35 in 15.0 mi SE 17.3 mph - N/A   Overcast
3:00 PM 44.6 °F 37.8 °F 24.8 °F 46% 30.33 in 15.0 mi SE 15.0 mph - N/A   Overcast
4:00 PM 44.6 °F 38.4 °F 24.8 °F 46% 30.32 in 15.0 mi SE 12.7 mph - N/A   Mostly Cloudy
5:00 PM 42.8 °F 37.5 °F 24.8 °F 49% 30.30 in 15.0 mi ESE 9.2 mph - N/A   Mostly Cloudy
6:00 PM 39.2 °F 35.0 °F 24.8 °F 56% 30.30 in 15.0 mi SE 5.8 mph - N/A   Scattered Clouds
7:00 PM 36 °F - 24 °F 48% 30.31 in 15 mi SSE 3.5 mph - -   Clear
7:00 PM 37.4 °F 33.8 °F 23.0 °F 56% 30.31 in 15.0 mi SSE 4.6 mph - N/A   Partly Cloudy
8:00 PM 37.4 °F 34.9 °F 26.6 °F 65% 30.31 in 15.0 mi SE 3.5 mph - N/A   Partly Cloudy
9:00 PM 37.4 °F 33.8 °F 26.6 °F 65% 30.29 in 15.0 mi SSE 4.6 mph - N/A   Mostly Cloudy
10:00 PM 37.4 °F 32.8 °F 26.6 °F 65% 30.28 in 15.0 mi SE 5.8 mph - N/A   Mostly Cloudy
11:00 PM 37.4 °F 33.8 °F 28.4 °F 70% 30.27 in 15.0 mi SE 4.6 mph - N/A   Mostly Cloudy